www.pogodaiklimat.ru

Погода и климат >> Архив погоды >> Португалия >> Остров Грасьоса


ПОГОДА на Острове Грасьоса

  • Прогноз погоды на Острове Грасьоса
  • Монитор погоды на Острове Грасьоса

АРХИВ ПОГОДЫ на Острове Грасьоса

Время (UTC), дата Ветер
(напр.,м/с)
 
Видим.   Явления Облачность Т
(С)
Тd
(С)
f
(%)
Тe
(С)
Тes
(С)
Комфортность P
(гПа)
Po
(гПа)
Тmin
(С)
Tmax
(С)
R
(мм)
R24
(мм)
S
(см)
03 14.05 штиль 0 н/о н/о +15.5 -5.7 23 +16 +16 1019.2 1016.2
06 14.05 штиль 0 н/о н/о +14.2 -7.6 21 +14 +14 1019.7 1016.7 +14.1
09 14.05 штиль 0 17 км 9/1 450 м
[Cu Sc Ci sp]
+16.8 -5.0 22 +17 +21 1021.4 1018.4
12 14.05 штиль 0 20 км 8/1 450 м
[Cu Sc Ci sp]
+19.1 -2.8 23 +19 +36 опасность
простуды
1022.6 1019.6
15 14.05 штиль 0 н/о н/о +18.5 -3.5 22 +18 +18 1022.6 1019.6
18 14.05 штиль 0 20 км 6/1 540 м
[Cu Sc Ci fib]
+18.6 -3.4 22 +19 +26 1022.9 1019.9 +19.6
21 14.05 штиль 0 н/о н/о +15.9 -5.8 22 +16 +16 1023.7 1020.7
00 15.05 штиль 0 н/о н/о +16.0 -3.9 25 +16 +16 1024.0 1021.0
03 15.05 штиль 0 н/о н/о +16.0 -6.2 21 +16 +16 1022.1 1019.1
06 15.05 штиль 0 н/о н/о +16.4 -5.9 21 +16 +16 1021.1 1018.1
09 15.05 штиль 0 10 км в посл. час ливневой дождь 9/9 300 м
[Cu Sc]
+17.6 -5.5 20 +18 +18 1000.0 1018.6
12 15.05 штиль 0 18 км {ливн. осадки} 9/8 360 м
[Cu Sc Ac trans Ci fib]
+17.7 -6.6 18 +18 +18 1021.5 1018.5
15 15.05 штиль 0 10 км в посл. час ливневой дождь 9/6 400 м
[Cu Sc Ac trans Ci sp]
+19.1 -3.3 22 +19 +19 1020.9 1017.9
18 15.05 штиль 0 10 км 9/9 240 м
[Cu Sc]
+17.5 -4.8 21 +18 +18 1021.6 1018.6 +19.4
21 15.05 штиль 0 н/о н/о +15.8 -6.2 21 +16 +16 1023.1 1020.1
00 16.05 штиль 0 н/о н/о +15.4 -4.7 25 +15 +15 1024.4 1021.4
03 16.05 штиль 0 н/о н/о +15.1 -7.2 21 +15 +15 1024.4 1021.4
06 16.05 штиль 0 н/о н/о +14.5 -7.4 21 +15 +15 1024.5 1021.5 +14.5
09 16.05 штиль 0 10 км в посл. час морось 9/9 180 м
[Cu Sc]
+15.2 -6.7 21 +15 +16 1025.9 1022.9
12 16.05 штиль 0 20 км {морось} 9/9 360 м
[Cu Sc]
+17.5 -4.8 21 +18 +20 1026.6 1023.6
15 16.05 штиль 0 н/о н/о +17.9 -4.0 22 +18 +18 1026.5 1023.5
18 16.05 штиль 0 20 км 9/9 360 м
[Cu Sc]
+17.1 -4.8 22 +17 +18 1025.9 1022.9 +18.7
21 16.05 штиль 0 н/о н/о +16.1 -5.6 22 +16 +16 1026.4 1023.4
00 17.05 штиль 0 н/о н/о +16.2 -3.9 25 +16 +16 1027.3 1024.3
03 17.05 штиль 0 н/о н/о +15.4 -6.4 22 +15 +15 1026.4 1023.4
06 17.05 штиль 0 н/о н/о +15.4 -4.2 26 +15 +15 1025.8 1022.8 +15.1
09 17.05 штиль 0 20 км 9/9 450 м
[Cu Sc]
+16.6 -5.5 22 +17 +17 1027.1 1024.1
12 17.05 штиль 0 н/о н/о +18.2 -4.0 22 +18 +18 1027.1 1024.1
15 17.05 штиль 0 20 км 8/1 450 м
[Cu hum Ci sp]
+18.7 -3.7 22 +19 +38 опасность
простуды
1000.0 1023.9
18 17.05 штиль 0 н/о н/о +18.2 -4.2 21 +18 +18 1025.9 1022.9 +19.1
21 17.05 штиль 0 н/о н/о +16.4 -5.7 21 +16 +16 1025.8 1022.8
00 18.05 штиль 0 н/о н/о +16.3 -4.0 25 +16 +16 1026.4 1023.4
03 18.05 штиль 0 н/о н/о +16.1 -6.0 21 +16 +16 1025.1 1022.1
06 18.05 штиль 0 н/о н/о +15.9 -6.1 21 +16 +16 1024.0 1021.0 +15.9
09 18.05 штиль 0 15 км в посл. час морось 9/9 240 м
[Cu Sc]
+16.8 -5.3 22 +17 +17 1024.5 1021.5
12 18.05 штиль 0 8000 м слаб. морось 9/9 90 м
[Cu Sc]
+17.2 -4.9 22 +17 +19 1025.1 1022.1
15 18.05 штиль 0 н/о н/о +19.5 -3.0 22 +19 +19 1024.9 1021.9
18 18.05 штиль 0 н/о н/о +19.7 -2.8 22 +19 +19 1024.4 1021.4 +20.7
21 18.05 штиль 0 н/о н/о +17.2 -4.8 22 +17 +17 1024.4 1021.4
00 19.05 штиль 0 н/о н/о +15.9 -4.2 25 +16 +16 1024.3 1021.3
03 19.05 штиль 0 н/о н/о +16.1 -6.8 20 +16 +16 1023.5 1020.5
06 19.05 штиль 0 н/о н/о +16.5 -5.8 21 +17 +17 1022.8 1019.8 +15.7
09 19.05 штиль 0 20 км 6/5 420 м
[Cu Sc Ci fib]
+17.9 -4.4 22 +18 +21 1023.3 1020.3
12 19.05 штиль 0 20 км 9/8 540 м
[Cu Sc Ci fib]
+19.5 -2.8 22 +19 +23 1023.0 1020.1
15 19.05 штиль 0 20 км 4/3 600 м
[Cu Sc Ci fib]
+20.3 -2.2 22 +20 +37 опасность
простуды
1022.1 1019.2
18 19.05 штиль 0 н/о н/о +19.4 -3.0 22 +19 +19 1020.8 1017.8 +21.2
21 19.05 штиль 0 н/о н/о +17.6 -5.0 21 +18 +18 1020.6 1017.6
00 20.05 штиль 0 н/о н/о +17.5 -2.6 25 +18 +18 1020.4 1017.4
03 20.05 штиль 0 н/о н/о +17.8 -4.3 22 +18 +18 1018.9 1015.9
06 20.05 штиль 0 н/о н/о +17.6 -4.2 22 +18 +18 1017.4 1014.5 +17.0
09 20.05 штиль 0 20 км 6/5 400 м
[Cu Sc Ci fib]
+18.4 -3.4 22 +18 +21 1017.8 1014.8
12 20.05 штиль 0 20 км 3/1 420 м
[Cu Sc Ci fib]
+20.8 -2.3 21 +20 +40 опасность
простуды
1017.3 1014.3
15 20.05 штиль 0 20 км 6/4 420 м
[Cu Sc Ci fib]
+21.6 -1.1 22 +21 +35 комфорт 1016.3 1013.4
18 20.05 штиль 0 н/о н/о +20.6 -2.3 21 +20 +20 1015.0 1012.1 +22.2
21 20.05 штиль 0 н/о н/о +19.3 -2.6 23 +19 +19 1014.1 1011.1
00 21.05 штиль 0 н/о н/о +19.1 -0.7 26 +19 +19 1013.4 1010.5

 

Местоположение метеостанции Остров Грасьоса (Португалия): широта 39.08 долгота -28.03 высота над уровнем моря 31 м.

В архиве по умолчанию представлена погода на Острове Грасьоса за последнюю неделю. Архивные данные за месяц целиком и за предыдущие месяцы, начиная с января 2011 года, Вы можете получить, выбрав интересующий диапазон дат из раскрывающегося списка и нажав кнопку "Ввод!".


*Определитесь, кто Вы:
робот инопланетянин человек

Внимание! Время в таблицах - всемирное. Для получения местного времени необходимо прибавить поправку, которая равна 0 ч.

Смотрите также архив погоды в соседних городах и на ближайших метеорологических станциях:

Погода в Сан-Жоржи (Португалия) (48 км)
Погода в Пико (Португалия) (69 км)
Погода в Орте (Португалия) (81 км)
Погода в Ангра-ду-Эроижму (Португалия) (84 км)
Погода в Каштелу-Бранку (Португалия) (86 км)
Погода в Аэропорту Лажеша (Португалия) (88 км)
Погода в Понта-Делгаде (Португалия) (253 км)
Погода на Флошише (Португалия) (270 км)
Погода в Санта-Марии (Португалия) (344 км)
Погода в Фуншале (Португалия) (1232 км)

Пояснения к столбцам:

Ветер - указаны скорость ветра в м/с - средняя за 10 мин, порывы в срок и между сроками (в фигурных скобках) и направление, откуда дует ветер: С - северный, СВ - северо-восточный, В - восточный, ЮВ - юго-восточный, Ю - южный, ЮЗ - юго-западный, З - западный, СЗ - северо-западный.
Видимость - горизонтальная дальность видимости в метрах или километрах. При видимости от 1 до 10 км при отсутствии осадков обычно наблюдается дымка, при ухудшении видимости до 1 км и менее - туман. В сухую погоду видимость может ухудшаться дымом, пылью или мглою.
Явления - указаны атмосферные явления, наблюдавшиеся в срок или в последний час перед сроком; фигурными скобками обозначены явления, наблюдавшиеся между сроками (за 1-3 часа до срока); квадратными скобками обозначены град или гололедные отложения с указанием их диаметра в мм.
Облачность - указаны через наклонную черту общая и нижняя облачность в баллах и высота нижней границы облаков в метрах; квадратными скобками обозначены формы облаков: Ci - перистые, Cs - перисто-слоистые, Cc - перисто-кучевые, Ac - высококучевые, As - высокослоистые, Sc - слоисто-кучевые, Ns - слоисто-дождевые, Cu - кучевые, Cb - кучево-дождевые. Подробнее классификацию облаков см. в Атласе облаков (PDF).
T - Температура воздуха - температура, измеренная на высоте 2 м над землей.
Td - Температура точки росы - температура, при понижении до которой содержащийся в воздухе водяной пар достигнет насыщения.
f - Относительная влажность воздуха - влажноcть воздуха, измеренная на высоте 2 м над землей.
Te - Эффективная температура - температура, которую ощущает одетый по сезону человек в тени. Характеристика душности погоды. При расчете учитывается влияние влажности воздуха и скорости ветра на теплоощущения человека.
Tes - Эффективная температура на солнце - температура, которую ощущает человек, с поправкой на солнечный нагрев. Характеристика знойности погоды. Зависит от высоты солнца над горизонтом, облачности и скорости ветра. Ночью, в пасмурную погоду, а также при ветре 12 м/с и более поправка равна нулю.
P - Атмосферное давление - приведенное к уровню моря атмосферное давление.
Po - Атмосферное давление - измеренное на уровне метеостанции атмосферное давление.
Tmin - Минимальная температура - минимум температуры воздуха на высоте 2 м над землей.
Tmax - Максимальная температура - максимум температуры воздуха на высоте 2 м над землей.
R - Количество осадков - Количество выпавших осадков за период времени, мм. При наведении курсора мыши на число - период времени, за который выпало указанное количество осадков.
R24 - Количество осадков - Количество выпавших осадков за 24 часа, мм.
S - Снежный покров - Высота снежного покрова, см. При наведении курсора мыши на число - состояние снежного покрова и степень покрытия местности в баллах.